[[{"header":{"parameterUnit":"m.s-1","parameterCategory":1,"la1":30.2991,"la2":30.254,"lo1":-89.0895,"lo2":-89.0444,"dy":0.0017,"dx":0.0017,"nx":28,"ny":28,"refTime":"2024-04-26T21:00:00:Z","depth":0,"parameterNumber":2,"parameterNumberName":"U-component_of_WINDS"},"data":[0,0,0,0,0,0,0,0,0,0,0,0,0,0,0,0,0,0,0,0,0,0,0,0,0,0,0,0,0,0,0,0,0,0,0,0,0,0,0,0,0,0,0,0,0,0,0,0,0,0,0,0,0,0,0,0,0,0,-7.9956,-7.9957,0,-8.0036,-8.0036,-8.0037,-7.9991,-7.9989,-7.9987,-7.9984,-8.0059,-8.0063,-8.0067,0,0,0,0,0,0,0,0,0,0,0,0,0,-7.9759,-7.9763,-7.9956,-7.9957,-7.9958,-8.0035,-8.0036,-8.0038,-7.9991,-7.9989,-7.9986,-7.9983,-8.0058,-8.0063,-8.0068,0,0,0,0,0,0,0,0,0,0,0,0,0,-7.9842,-7.9764,-7.9956,-7.9944,-7.9944,-8.0035,-8.0037,-8.0038,-7.9992,-7.9989,-7.9985,-7.9982,-8.0056,-8.0062,-8.0068,-8.0173,0,0,-8.0087,-8.009,0,0,0,0,0,0,0,0,-7.9838,-7.9849,-7.9945,-7.9945,-7.9945,-8.0,-7.9995,-8.0083,-7.9993,-7.9974,-7.9984,-7.9981,-8.0042,-8.0049,-8.0071,-8.0176,-8.018,-8.0088,-8.0091,-8.0094,-8.0096,0,0,0,0,0,0,0,-7.9832,-7.9846,-7.9987,-7.9946,-7.9947,-7.9934,-7.9942,-8.0011,-8.0025,-7.9975,-7.9972,-7.9982,-8.0041,-8.0065,-8.0072,-8.0181,-8.0087,-8.0093,-8.0097,-8.0099,-8.0377,-8.038,0,0,0,0,0,0,-7.9828,-7.9841,-7.9985,-7.9989,-7.9882,-7.994,-7.9949,-7.9986,-8.0024,-8.0027,-7.9985,-7.998,-8.0056,-8.0065,-8.0075,-8.0199,-8.0094,-8.01,-8.0103,-8.0373,-8.0377,-8.0381,0,0,0,0,0,0,-7.9824,-7.9841,-7.9981,-7.9915,-7.9932,-7.9947,-7.9988,-7.9989,-8.0013,-8.0032,-8.0034,-8.0007,-8.0054,-8.0066,-8.0149,-8.0201,-8.0102,-8.0108,-8.0369,-8.0374,-8.0379,-8.0449,0,0,0,0,0,0,-7.9818,-7.984,-7.988,-7.9916,-7.9935,-8.0056,-7.9992,-7.9993,-8.0024,-8.0018,-8.0053,-8.0056,-8.0052,-8.0141,-8.0156,-8.0208,-8.0113,-8.0364,-8.0371,-8.0378,-8.0442,-8.0456,-8.0468,0,0,0,0,0,-7.9811,-7.9895,-7.9883,-7.99,-7.9987,-8.0059,-8.007,-8.0066,-8.0029,-8.0069,-8.0082,-8.0055,-8.0194,-8.015,-8.0166,-8.0221,-8.036,-8.0369,-8.0377,-8.0436,-8.0453,-8.0468,0,0,0,0,0,0,-7.9861,-7.9899,-7.9886,-7.9984,-8.0019,-8.0051,-8.0101,-8.0085,-8.0129,-8.0121,-8.0113,-8.0121,-8.0208,-8.0223,-8.0173,-8.0324,-8.0271,-8.0283,-8.031,-8.0327,-8.034,-8.0332,-8.0118,0,0,0,0,0,-7.9885,-7.9942,-7.9972,-8.0055,-8.0074,-8.0085,-8.0116,-8.0111,-8.0146,-8.016,-8.0178,-8.0212,-8.0263,-8.0296,-8.0345,-8.0446,-8.0452,-8.0492,-8.0505,-8.0516,-8.0525,-8.0579,-8.0596,-8.0409,-8.0409,-8.0409,0,0,-7.9931,-7.996,-7.9995,-8.0066,-8.0092,-8.015,-8.0097,-8.0161,-8.0203,-8.0168,-8.0248,-8.0264,-8.0301,-8.0393,-8.0435,-8.0408,-8.0579,-8.0526,-8.0535,-8.0538,-8.0589,-8.0607,-8.0623,-8.0415,-8.0414,-8.0413,0,0,-8.0046,-8.0074,-8.0147,-8.0176,-8.0218,-8.0226,-8.0244,-8.0279,-8.0289,-8.037,-8.0346,-8.0396,-8.0484,-8.0512,-8.0537,-8.0667,-8.0643,-8.0683,-8.075,-8.0803,-8.0818,-8.0831,-8.0875,-8.0891,-8.0693,-8.0693,-8.0694,0,-8.0098,-8.0186,-8.0186,-8.0252,-8.0283,-8.0259,-8.0332,-8.0359,-8.0414,-8.0435,-8.0407,-8.0519,-8.0542,-8.064,-8.0672,-8.0695,-8.0713,-8.0677,-8.0816,-8.0829,-8.0841,-8.0883,-8.09,-8.0698,-8.0697,-8.0697,-8.0696,0,-8.0247,-8.0309,-8.0363,-8.0419,-8.0457,-8.0526,-8.0535,-8.0574,-8.0567,-8.0577,-8.066,-8.0688,-8.0742,-8.0766,-8.0758,-8.0864,-8.0846,-8.0817,-8.0763,-8.0863,-8.0903,-8.0919,-8.0704,-8.0702,-8.0701,-8.07,0,0,-8.039,-8.045,-8.0469,-8.0494,-8.0541,-8.0588,-8.0657,-8.0712,-8.0744,-8.0785,-8.084,-8.0918,-8.0893,-8.0922,-8.0918,-8.0965,-8.1064,-8.093,-8.0931,-8.0952,-8.1181,-8.12,-8.1218,-8.1051,-8.1055,-8.1057,-8.1177,0,-8.0505,-8.0627,-8.063,-8.074,-8.0797,-8.0777,-8.0837,-8.0871,-8.0884,-8.0933,-8.0947,-8.1001,-8.0965,-8.0982,-8.1028,-8.1043,-8.111,-8.1035,-8.11,-8.1103,-8.1088,-8.1239,-8.1259,-8.137,-8.1192,-8.1195,-8.1197,0,-8.0655,-8.0703,-8.082,-8.086,-8.0884,-8.0938,-8.0989,-8.1037,-8.1076,-8.1082,-8.1118,-8.1107,-8.1176,-8.1124,-8.1218,-8.1167,-8.1195,-8.1206,-8.1211,-8.1213,-8.1153,-8.1243,-8.1406,-8.1422,-8.1222,-8.122,-8.1218,0,-8.0745,-8.0839,-8.0921,-8.0944,-8.0994,-8.1032,-8.1054,-8.109,-8.1124,-8.1169,-8.1191,-8.1243,-8.1271,-8.1311,-8.1315,-8.1277,-8.1409,-8.1357,-8.1414,-8.1414,-8.1438,-8.1436,-8.1605,-8.1463,-8.1463,-8.1462,-8.1462,0,-8.0871,-8.0942,-8.0962,-8.1012,-8.1091,-8.1096,-8.1174,-8.1193,-8.1226,-8.1278,-8.1265,-8.1314,-8.1318,-8.1369,-8.1373,-8.1449,-8.1462,-8.1467,-8.1467,-8.1467,-8.1465,-8.1481,-8.1472,-8.1467,-8.1466,-8.1465,-8.1464,0,-8.0982,-8.0999,-8.1086,-8.1128,-8.1141,-8.1197,-8.1232,-8.1279,-8.1293,-8.136,-8.1375,-8.1396,-8.1455,-8.1464,-8.1533,-8.1535,-8.1626,-8.1619,-8.1613,-8.1611,-8.1666,-8.166,-8.1848,-8.1872,-8.1718,-8.1719,-8.172,0,-8.106,-8.1115,-8.1164,-8.12,-8.1225,-8.1282,-8.1317,-8.1324,-8.1361,-8.1412,-8.1453,-8.1512,-8.1558,-8.1653,-8.1672,-8.1725,-8.1717,-8.178,-8.1724,-8.1723,-8.1715,-8.171,-8.1715,-8.1789,-8.1791,-8.1792,-8.1793,0,-8.1195,-8.1202,-8.1254,-8.1311,-8.1354,-8.1398,-8.144,-8.1469,-8.1482,-8.1524,-8.1586,-8.1623,-8.1695,-8.1752,-8.1805,-8.1826,-8.1811,-8.1812,-8.1827,-8.1825,-8.1818,-8.182,-8.1639,-8.1806,-8.1804,-8.1804,-8.1803,-8.1802,-8.129,-8.1338,-8.1381,-8.144,-8.1474,-8.1514,-8.1561,-8.1582,-8.1634,-8.1694,-8.1696,-8.1763,-8.1802,-8.1873,-8.1898,-8.1949,-8.1929,-8.1952,-8.1957,-8.1961,-8.1966,-8.1814,-8.1959,-8.1959,-8.1959,-8.1958,-8.1958,0,-8.1422,-8.145,-8.1506,-8.1566,-8.1613,-8.16,-8.1646,-8.1685,-8.1745,-8.1784,-8.1832,-8.1903,-8.1959,-8.1986,-8.2041,-8.2077,-8.2072,-8.2091,-8.2086,-8.2091,-8.1982,-8.1962,-8.2095,-8.2095,-8.2095,-8.2095,-8.2095,-8.2095,-8.1497,-8.1577,-8.1589,-8.1687,-8.1713,-8.1781,-8.1808,-8.1845,-8.1876,-8.1957,-8.2005,-8.2023,-8.2057,-8.2116,-8.2167,-8.2173,-8.2192,-8.2214,-8.2217,-8.2113,-8.2099,-8.2086,-8.2067,-8.2219,-8.222,-8.2322,-8.2323,-8.2324]},{"header":{"parameterUnit":"m.s-1","parameterCategory":1,"la1":30.2991,"la2":30.254,"lo1":-89.0895,"lo2":-89.0444,"dy":0.0017,"dx":0.0017,"nx":28,"ny":28,"refTime":"2024-04-26T21:00:00:Z","depth":0,"parameterNumber":3,"parameterNumberName":"V-component_of_WINDS"},"data":[0,0,0,0,0,0,0,0,0,0,0,0,0,0,0,0,0,0,0,0,0,0,0,0,0,0,0,0,0,0,0,0,0,0,0,0,0,0,0,0,0,0,0,0,0,0,0,0,0,0,0,0,0,0,0,0,0,0,4.4605,4.4605,0,4.4677,4.4678,4.4678,4.4731,4.4731,4.4732,4.4732,4.4802,4.4803,4.4804,0,0,0,0,0,0,0,0,0,0,0,0,0,4.451,4.4511,4.4604,4.4605,4.4606,4.4677,4.4678,4.4679,4.4731,4.4731,4.4732,4.4732,4.4801,4.4803,4.4804,0,0,0,0,0,0,0,0,0,0,0,0,0,4.4563,4.4512,4.4604,4.4641,4.4645,4.4676,4.4678,4.4679,4.4731,4.4731,4.4732,4.4733,4.48,4.4803,4.4805,4.4804,0,0,4.4811,4.4812,0,0,0,0,0,0,0,0,4.456,4.4567,4.4635,4.4638,4.4643,4.4696,4.467,4.4721,4.473,4.4698,4.4732,4.4733,4.4765,4.477,4.4782,4.4807,4.481,4.4811,4.4813,4.4814,4.4814,0,0,0,0,0,0,0,4.4556,4.4564,4.4633,4.4636,4.4641,4.4653,4.4661,4.468,4.4727,4.4701,4.4705,4.4713,4.4768,4.478,4.4784,4.4811,4.4811,4.4813,4.4815,4.4815,4.4843,4.4843,0,0,0,0,0,0,4.4547,4.456,4.4631,4.4635,4.4603,4.4654,4.4664,4.4678,4.4727,4.4735,4.4712,4.4715,4.4776,4.4782,4.4787,4.4792,4.4814,4.4816,4.4817,4.4844,4.4843,4.4842,0,0,0,0,0,0,4.4545,4.4553,4.4628,4.4599,4.461,4.4655,4.4671,4.4679,4.4692,4.4736,4.4744,4.4716,4.4777,4.4784,4.4801,4.4795,4.4817,4.4819,4.4844,4.4843,4.4843,4.48,0,0,0,0,0,0,4.4542,4.4552,4.4553,4.4599,4.4611,4.464,4.467,4.468,4.4696,4.47,4.4742,4.4749,4.4778,4.4797,4.4803,4.4798,4.482,4.4845,4.4844,4.4843,4.4802,4.4798,4.4794,0,0,0,0,0,4.4539,4.4536,4.4552,4.456,4.4613,4.464,4.4647,4.4682,4.4695,4.4696,4.4725,4.4748,4.4795,4.4798,4.4805,4.4801,4.4845,4.4844,4.4843,4.4804,4.4799,4.4794,0,0,0,0,0,0,4.4485,4.4543,4.4561,4.4574,4.4602,4.4649,4.4651,4.4674,4.4698,4.4701,4.4742,4.4751,4.4764,4.4784,4.4787,4.4805,4.4823,4.4823,4.4791,4.4786,4.4783,4.4777,4.4822,0,0,0,0,0,4.4476,4.4494,4.4543,4.4549,4.4562,4.4604,4.4617,4.4642,4.4672,4.4684,4.4714,4.4741,4.4763,4.4776,4.4797,4.4806,4.4816,4.4806,4.4802,4.4799,4.4798,4.4806,4.4803,4.4838,4.4838,4.4838,0,0,4.4454,4.4488,4.4497,4.4539,4.4564,4.4582,4.4614,4.4631,4.4645,4.4686,4.4705,4.4728,4.4761,4.4774,4.4781,4.4792,4.4791,4.4797,4.4794,4.4796,4.4805,4.4801,4.4798,4.4837,4.4838,4.4838,0,0,4.4426,4.4452,4.4462,4.4487,4.4526,4.4554,4.4556,4.4601,4.4618,4.4638,4.467,4.4687,4.4722,4.4746,4.4762,4.4746,4.4769,4.4752,4.4731,4.4738,4.4736,4.4733,4.4729,4.4727,4.4751,4.4751,4.4751,0,4.4394,4.4424,4.4463,4.448,4.4498,4.4539,4.455,4.4571,4.4614,4.4625,4.4637,4.4684,4.4709,4.473,4.4727,4.4738,4.4742,4.4747,4.4733,4.4731,4.473,4.4726,4.4724,4.4749,4.4749,4.475,4.475,0,4.4384,4.4404,4.4407,4.4451,4.4469,4.4482,4.4524,4.4537,4.4561,4.4589,4.4609,4.4641,4.4672,4.4679,4.47,4.4703,4.4708,4.4726,4.4745,4.4724,4.4721,4.472,4.4746,4.4747,4.4747,4.4748,0,0,4.4322,4.4389,4.439,4.4411,4.4458,4.4474,4.449,4.4522,4.4534,4.4562,4.4577,4.4607,4.4625,4.4644,4.4669,4.4676,4.4663,4.4693,4.4694,4.4687,4.4669,4.4656,4.4654,4.4679,4.4679,4.4679,4.4667,0,4.4301,4.4333,4.437,4.4389,4.4409,4.445,4.4464,4.4494,4.452,4.4541,4.457,4.4592,4.4612,4.4625,4.4633,4.4663,4.466,4.4664,4.4692,4.4693,4.4683,4.4652,4.4638,4.4625,4.4666,4.4666,4.4666,0,4.428,4.431,4.4332,4.438,4.439,4.4401,4.4435,4.4454,4.449,4.4509,4.4532,4.456,4.4579,4.4596,4.4623,4.4625,4.4639,4.4655,4.4656,4.466,4.4678,4.4656,4.4622,4.462,4.4664,4.4664,4.4664,0,4.4235,4.428,4.43,4.4316,4.4372,4.438,4.4403,4.444,4.4458,4.4487,4.4499,4.4529,4.4545,4.4568,4.4604,4.4613,4.4627,4.4647,4.4644,4.4643,4.4644,4.4644,4.4613,4.4652,4.4652,4.4652,4.4652,0,4.4208,4.422,4.428,4.4292,4.4307,4.435,4.4364,4.4391,4.4423,4.4441,4.4477,4.4493,4.4539,4.4561,4.4588,4.4607,4.4614,4.463,4.4637,4.4627,4.4625,4.4637,4.4639,4.4652,4.4652,4.4652,4.4652,0,4.4159,4.42,4.4225,4.4277,4.429,4.4299,4.4344,4.4357,4.4387,4.4409,4.4417,4.4463,4.449,4.4528,4.4566,4.4585,4.46,4.4612,4.4589,4.4594,4.4589,4.4589,4.4564,4.4563,4.4602,4.4602,4.4602,0,4.414,4.4151,4.4205,4.4221,4.4244,4.4268,4.4288,4.4331,4.4349,4.4393,4.4401,4.4431,4.4458,4.45,4.4536,4.4566,4.4579,4.4568,4.4583,4.4573,4.458,4.4579,4.4581,4.4564,4.4563,4.4563,4.4562,0,4.4102,4.4122,4.415,4.4185,4.4208,4.4237,4.4267,4.4278,4.4328,4.4347,4.4376,4.4397,4.4438,4.4468,4.4504,4.4527,4.4553,4.4558,4.4559,4.4549,4.4536,4.4544,4.458,4.4558,4.4558,4.4559,4.4559,4.4559,4.4068,4.408,4.4122,4.4152,4.418,4.4209,4.4225,4.4258,4.4284,4.4322,4.4346,4.4375,4.4412,4.4463,4.4485,4.4508,4.4518,4.4519,4.452,4.452,4.4517,4.4532,4.4514,4.4515,4.4515,4.4515,4.4515,0,4.4033,4.4062,4.409,4.4133,4.4157,4.4182,4.4218,4.4236,4.4262,4.4295,4.4322,4.4357,4.4387,4.4427,4.446,4.447,4.4483,4.4478,4.4477,4.4483,4.4505,4.4501,4.4467,4.4467,4.4467,4.4467,4.4467,4.4467,4.4017,4.4041,4.4066,4.4104,4.4134,4.4164,4.4183,4.421,4.4237,4.4275,4.4301,4.4328,4.4364,4.4401,4.443,4.4441,4.4451,4.4442,4.4457,4.4477,4.4481,4.4485,4.4482,4.4444,4.4444,4.4433,4.4433,4.4433]}]]